Time,TemperatureF,DewpointF,PressureIn,WindDirection,WindDirectionDegrees,WindSpeedMPH,WindSpeedGustMPH,Humidity,HourlyPrecipIn,Conditions,Clouds,dailyrainin,SoftwareType,DateUTC
2013-05-08 00:00:00,70.1,59.9,29.96,SSE,166,0.0,10.0,70,0.00,,SKC,0.00,VWS V14.01,2013-05-08 05:00:00,
2013-05-08 00:01:00,70.0,59.8,29.96,SSE,166,3.0,8.0,70,0.00,,SKC,0.00,VWS V14.01,2013-05-08 05:01:00,
2013-05-08 00:06:00,69.8,60.0,29.96,SSE,166,0.0,8.0,71,0.00,,SKC,0.00,VWS V14.01,2013-05-08 05:06:00,
2013-05-08 00:10:00,69.8,60.0,29.96,SSE,166,0.0,8.0,71,0.00,,SKC,0.00,VWS V14.01,2013-05-08 05:10:00,
2013-05-08 00:11:00,69.5,59.7,29.96,SSE,166,0.0,4.0,71,0.00,,SKC,0.00,VWS V14.01,2013-05-08 05:11:00,
2013-05-08 00:16:00,69.3,59.9,29.96,SSE,166,0.0,4.0,72,0.00,,SKC,0.00,VWS V14.01,2013-05-08 05:16:00,
2013-05-08 00:20:00,69.3,59.9,29.96,SSE,166,0.0,4.0,72,0.00,,SKC,0.00,VWS V14.01,2013-05-08 05:20:00,
2013-05-08 00:21:00,69.1,59.7,29.96,SSE,166,0.0,0.0,72,0.00,,SKC,0.00,VWS V14.01,2013-05-08 05:21:00,
2013-05-08 00:26:00,68.9,59.9,29.96,SSE,166,0.0,1.0,73,0.00,,SKC,0.00,VWS V14.01,2013-05-08 05:26:00,
2013-05-08 00:30:00,68.9,59.9,29.96,SSE,166,0.0,1.0,73,0.00,,SKC,0.00,VWS V14.01,2013-05-08 05:30:00,
2013-05-08 00:31:00,68.6,59.6,29.96,SSE,166,0.0,0.0,73,0.00,,SKC,0.00,VWS V14.01,2013-05-08 05:31:00,
2013-05-08 00:36:00,68.4,59.4,29.96,SSE,166,0.0,0.0,73,0.00,,SKC,0.00,VWS V14.01,2013-05-08 05:36:00,
2013-05-08 00:40:00,68.4,59.4,29.96,SSE,166,0.0,0.0,73,0.00,,SKC,0.00,VWS V14.01,2013-05-08 05:40:00,
2013-05-08 00:41:00,68.1,59.5,29.96,SSE,166,0.0,0.0,74,0.00,,SKC,0.00,VWS V14.01,2013-05-08 05:41:00,
2013-05-08 00:46:00,67.7,59.1,29.96,SSE,166,0.0,0.0,74,0.00,,SKC,0.00,VWS V14.01,2013-05-08 05:46:00,
2013-05-08 00:50:00,67.7,59.1,29.96,SSE,166,0.0,0.0,74,0.00,,SKC,0.00,VWS V14.01,2013-05-08 05:50:00,
2013-05-08 00:51:00,67.4,59.2,29.96,SSE,166,0.0,0.0,75,0.00,,SKC,0.00,VWS V14.01,2013-05-08 05:51:00,
2013-05-08 00:56:00,67.1,58.9,29.96,SSE,166,0.0,0.0,75,0.00,,SKC,0.00,VWS V14.01,2013-05-08 05:56:00,
2013-05-08 01:00:00,67.1,58.9,29.96,SSE,166,0.0,0.0,75,0.00,,SKC,0.00,VWS V14.01,2013-05-08 06:00:00,
2013-05-08 01:01:00,66.8,58.6,29.96,SSE,166,0.0,1.0,75,0.00,,SKC,0.00,VWS V14.01,2013-05-08 06:01:00,
2013-05-08 01:06:00,66.6,58.8,29.96,SSE,166,0.0,1.0,76,0.00,,SKC,0.00,VWS V14.01,2013-05-08 06:06:00,
2013-05-08 01:10:00,66.6,58.8,29.96,SSE,166,0.0,1.0,76,0.00,,SKC,0.00,VWS V14.01,2013-05-08 06:10:00,
2013-05-08 01:11:00,66.3,58.5,29.95,SSE,166,0.0,0.0,76,0.00,,SKC,0.00,VWS V14.01,2013-05-08 06:11:00,
2013-05-08 01:16:00,66.1,58.7,29.95,SSE,166,0.0,0.0,77,0.00,,SKC,0.00,VWS V14.01,2013-05-08 06:16:00,
2013-05-08 01:20:00,66.1,58.7,29.95,SSE,166,0.0,0.0,77,0.00,,SKC,0.00,VWS V14.01,2013-05-08 06:20:00,
2013-05-08 01:21:00,65.9,58.5,29.95,SSE,166,0.0,0.0,77,0.00,,SKC,0.00,VWS V14.01,2013-05-08 06:21:00,
2013-05-08 01:26:00,65.7,58.7,29.95,SSE,166,0.0,0.0,78,0.00,,SKC,0.00,VWS V14.01,2013-05-08 06:26:00,
2013-05-08 01:30:00,65.7,58.7,29.95,SSE,166,0.0,0.0,78,0.00,,SKC,0.00,VWS V14.01,2013-05-08 06:30:00,
2013-05-08 01:31:00,65.5,58.8,29.95,SSE,166,0.0,0.0,79,0.00,,SKC,0.00,VWS V14.01,2013-05-08 06:31:00,
2013-05-08 01:36:00,65.3,59.0,29.95,SSE,166,0.0,0.0,80,0.00,,SKC,0.00,VWS V14.01,2013-05-08 06:36:00,
2013-05-08 01:40:00,65.3,59.0,29.95,SSE,166,0.0,0.0,80,0.00,,SKC,0.00,VWS V14.01,2013-05-08 06:40:00,
2013-05-08 01:41:00,65.1,58.8,29.95,SSE,166,0.0,0.0,80,0.00,,SKC,0.00,VWS V14.01,2013-05-08 06:41:00,
2013-05-08 01:46:00,65.0,59.0,29.95,SSE,166,0.0,0.0,81,0.00,,SKC,0.00,VWS V14.01,2013-05-08 06:46:00,
2013-05-08 01:50:00,65.0,59.0,29.95,SSE,166,0.0,0.0,81,0.00,,SKC,0.00,VWS V14.01,2013-05-08 06:50:00,
2013-05-08 01:51:00,64.8,59.2,29.95,SSE,166,0.0,0.0,82,0.00,,SKC,0.00,VWS V14.01,2013-05-08 06:51:00,
2013-05-08 01:56:00,64.7,59.1,29.95,SSE,166,0.0,0.0,82,0.00,,SKC,0.00,VWS V14.01,2013-05-08 06:56:00,
2013-05-08 02:00:00,64.7,59.1,29.95,SSE,166,0.0,0.0,82,0.00,,SKC,0.00,VWS V14.01,2013-05-08 07:00:00,
2013-05-08 02:01:00,64.5,59.2,29.95,SSE,166,0.0,0.0,83,0.00,,SKC,0.00,VWS V14.01,2013-05-08 07:01:00,
2013-05-08 02:06:00,64.3,59.0,29.94,SSE,166,0.0,0.0,83,0.00,,SKC,0.00,VWS V14.01,2013-05-08 07:06:00,
2013-05-08 02:10:00,64.4,59.1,29.94,SSE,166,0.0,0.0,83,0.00,,SKC,0.00,VWS V14.01,2013-05-08 07:10:00,
2013-05-08 02:11:00,64.2,58.9,29.94,SSE,166,0.0,0.0,83,0.00,,SKC,0.00,VWS V14.01,2013-05-08 07:11:00,
2013-05-08 02:16:00,64.1,59.2,29.95,SSE,166,0.0,0.0,84,0.00,,SKC,0.00,VWS V14.01,2013-05-08 07:16:00,
2013-05-08 02:20:00,64.1,59.2,29.95,SSE,166,0.0,0.0,84,0.00,,SKC,0.00,VWS V14.01,2013-05-08 07:20:00,
2013-05-08 02:21:00,64.0,59.4,29.95,SSE,166,0.0,0.0,85,0.00,,SKC,0.00,VWS V14.01,2013-05-08 07:21:00,
2013-05-08 02:26:00,63.9,59.3,29.94,SSE,166,0.0,0.0,85,0.00,,SKC,0.00,VWS V14.01,2013-05-08 07:26:00,
2013-05-08 02:30:00,63.8,59.2,29.94,SSE,166,0.0,0.0,85,0.00,,SKC,0.00,VWS V14.01,2013-05-08 07:30:00,
2013-05-08 02:31:00,63.7,59.1,29.94,SSE,166,0.0,0.0,85,0.00,,SKC,0.00,VWS V14.01,2013-05-08 07:31:00,
2013-05-08 02:36:00,63.5,58.9,29.94,SSE,166,0.0,0.0,85,0.00,,SKC,0.00,VWS V14.01,2013-05-08 07:36:00,
2013-05-08 02:40:00,63.5,58.9,29.94,SSE,166,0.0,0.0,85,0.00,,SKC,0.00,VWS V14.01,2013-05-08 07:40:00,
2013-05-08 02:41:00,63.3,58.7,29.94,SSE,166,0.0,0.0,85,0.00,,SKC,0.00,VWS V14.01,2013-05-08 07:41:00,
2013-05-08 02:46:00,63.2,59.0,29.94,SSE,166,0.0,0.0,86,0.00,,SKC,0.00,VWS V14.01,2013-05-08 07:46:00,
2013-05-08 02:50:00,63.1,58.8,29.94,SSE,166,0.0,0.0,86,0.00,,SKC,0.00,VWS V14.01,2013-05-08 07:50:00,
2013-05-08 02:51:00,63.0,58.8,29.94,SSE,166,0.0,0.0,86,0.00,,SKC,0.00,VWS V14.01,2013-05-08 07:51:00,
2013-05-08 02:56:00,62.9,59.0,29.94,SSE,166,0.0,0.0,87,0.00,,SKC,0.00,VWS V14.01,2013-05-08 07:56:00,
2013-05-08 03:00:00,62.8,58.9,29.94,SSE,166,0.0,0.0,87,0.00,,SKC,0.00,VWS V14.01,2013-05-08 08:00:00,
2013-05-08 03:01:00,62.7,58.8,29.94,SSE,166,0.0,0.0,87,0.00,,SKC,0.00,VWS V14.01,2013-05-08 08:01:00,
2013-05-08 03:06:00,62.6,59.0,29.94,SSE,166,0.0,0.0,88,0.00,,SKC,0.00,VWS V14.01,2013-05-08 08:06:00,
2013-05-08 03:10:00,62.6,59.0,29.94,SSE,166,0.0,0.0,88,0.00,,SKC,0.00,VWS V14.01,2013-05-08 08:10:00,
2013-05-08 03:11:00,62.6,59.0,29.94,SSE,166,0.0,0.0,88,0.00,,SKC,0.00,VWS V14.01,2013-05-08 08:11:00,
2013-05-08 03:16:00,62.5,58.9,29.94,SSE,166,0.0,0.0,88,0.00,,SKC,0.00,VWS V14.01,2013-05-08 08:16:00,
2013-05-08 03:20:00,62.5,58.9,29.94,SSE,166,0.0,0.0,88,0.00,,SKC,0.00,VWS V14.01,2013-05-08 08:20:00,
2013-05-08 03:21:00,62.5,59.2,29.94,SSE,166,0.0,0.0,89,0.00,,SKC,0.00,VWS V14.01,2013-05-08 08:21:00,
2013-05-08 03:26:00,62.5,59.2,29.94,SSE,166,0.0,0.0,89,0.00,,SKC,0.00,VWS V14.01,2013-05-08 08:26:00,
2013-05-08 03:30:00,62.5,59.2,29.94,SSE,166,0.0,0.0,89,0.00,,SKC,0.00,VWS V14.01,2013-05-08 08:30:00,
2013-05-08 03:31:00,62.6,59.6,29.93,SSE,166,0.0,0.0,90,0.00,,SKC,0.00,VWS V14.01,2013-05-08 08:31:00,
2013-05-08 03:36:00,62.7,59.7,29.93,SSE,166,0.0,0.0,90,0.00,,SKC,0.00,VWS V14.01,2013-05-08 08:36:00,
2013-05-08 03:40:00,62.7,59.7,29.93,SSE,166,1.0,1.0,90,0.00,,SKC,0.00,VWS V14.01,2013-05-08 08:40:00,
2013-05-08 03:41:00,62.8,59.8,29.94,SSE,166,0.0,2.0,90,0.00,,SKC,0.00,VWS V14.01,2013-05-08 08:41:00,
2013-05-08 03:46:00,62.9,59.9,29.93,SSE,166,0.0,2.0,90,0.00,,SKC,0.00,VWS V14.01,2013-05-08 08:46:00,
2013-05-08 03:50:00,62.9,59.9,29.93,SSE,166,0.0,2.0,90,0.00,,SKC,0.00,VWS V14.01,2013-05-08 08:50:00,
2013-05-08 03:51:00,63.0,60.0,29.93,SSE,166,0.0,0.0,90,0.00,,SKC,0.00,VWS V14.01,2013-05-08 08:51:00,
2013-05-08 03:56:00,63.1,60.1,29.94,SSE,166,0.0,0.0,90,0.00,,SKC,0.00,VWS V14.01,2013-05-08 08:56:00,
2013-05-08 04:00:00,63.1,60.1,29.94,SSE,166,0.0,0.0,90,0.00,,SKC,0.00,VWS V14.01,2013-05-08 09:00:00,
2013-05-08 04:01:00,63.1,60.1,29.94,SSE,166,0.0,0.0,90,0.00,,SKC,0.00,VWS V14.01,2013-05-08 09:01:00,
2013-05-08 04:06:00,63.2,60.5,29.94,SSE,166,0.0,0.0,91,0.00,,SKC,0.00,VWS V14.01,2013-05-08 09:06:00,
2013-05-08 04:10:00,63.2,60.5,29.94,SSE,166,0.0,0.0,91,0.00,,SKC,0.00,VWS V14.01,2013-05-08 09:10:00,
2013-05-08 04:11:00,63.3,60.6,29.94,SSE,166,0.0,0.0,91,0.00,,SKC,0.00,VWS V14.01,2013-05-08 09:11:00,
2013-05-08 04:16:00,63.4,60.7,29.94,SSE,166,0.0,0.0,91,0.00,,SKC,0.00,VWS V14.01,2013-05-08 09:16:00,
2013-05-08 04:20:00,63.4,60.7,29.94,SSE,166,0.0,0.0,91,0.00,,SKC,0.00,VWS V14.01,2013-05-08 09:20:00,
2013-05-08 04:21:00,63.5,60.8,29.94,SSE,166,0.0,0.0,91,0.00,,SKC,0.00,VWS V14.01,2013-05-08 09:21:00,
2013-05-08 04:26:00,63.7,61.0,29.94,SSE,166,0.0,0.0,91,0.00,,SKC,0.00,VWS V14.01,2013-05-08 09:26:00,
2013-05-08 04:30:00,63.7,61.0,29.94,SSE,166,0.0,0.0,91,0.00,,SKC,0.00,VWS V14.01,2013-05-08 09:30:00,
2013-05-08 04:31:00,63.8,61.1,29.94,SSE,166,0.0,0.0,91,0.00,,SKC,0.00,VWS V14.01,2013-05-08 09:31:00,
2013-05-08 04:36:00,63.9,61.2,29.94,SSE,166,0.0,0.0,91,0.00,,SKC,0.00,VWS V14.01,2013-05-08 09:36:00,
2013-05-08 04:40:00,63.9,61.2,29.94,SSE,166,0.0,0.0,91,0.00,,SKC,0.00,VWS V14.01,2013-05-08 09:40:00,
2013-05-08 04:41:00,64.0,61.3,29.94,SSE,166,0.0,0.0,91,0.00,,SKC,0.00,VWS V14.01,2013-05-08 09:41:00,
2013-05-08 04:46:00,64.0,61.3,29.94,SSE,166,0.0,0.0,91,0.00,,SKC,0.00,VWS V14.01,2013-05-08 09:46:00,
2013-05-08 04:50:00,64.0,61.3,29.94,SSE,166,0.0,0.0,91,0.00,,SKC,0.00,VWS V14.01,2013-05-08 09:50:00,
2013-05-08 04:51:00,64.0,61.3,29.94,SSE,166,0.0,1.0,91,0.00,,SKC,0.00,VWS V14.01,2013-05-08 09:51:00,
2013-05-08 04:56:00,64.0,61.3,29.94,SSE,166,0.0,1.0,91,0.00,,SKC,0.00,VWS V14.01,2013-05-08 09:56:00,
2013-05-08 05:00:00,64.0,61.3,29.94,SSE,166,0.0,1.0,91,0.00,,SKC,0.00,VWS V14.01,2013-05-08 10:00:00,
2013-05-08 05:01:00,64.0,61.3,29.94,SSE,166,0.0,0.0,91,0.00,,SKC,0.00,VWS V14.01,2013-05-08 10:01:00,
2013-05-08 05:06:00,64.1,61.4,29.94,SSE,166,0.0,0.0,91,0.00,,SKC,0.00,VWS V14.01,2013-05-08 10:06:00,
2013-05-08 05:10:00,64.1,61.4,29.93,SSE,166,0.0,0.0,91,0.00,,SKC,0.00,VWS V14.01,2013-05-08 10:10:00,
2013-05-08 05:11:00,64.1,61.4,29.93,SSE,166,0.0,0.0,91,0.00,,SKC,0.00,VWS V14.01,2013-05-08 10:11:00,
2013-05-08 05:16:00,64.1,61.4,29.94,SSE,166,0.0,0.0,91,0.00,,SKC,0.00,VWS V14.01,2013-05-08 10:16:00,
2013-05-08 05:20:00,64.1,61.4,29.94,SSE,166,0.0,0.0,91,0.00,,SKC,0.00,VWS V14.01,2013-05-08 10:20:00,
2013-05-08 05:21:00,64.1,61.4,29.93,SSE,166,0.0,0.0,91,0.00,,SKC,0.00,VWS V14.01,2013-05-08 10:21:00,
2013-05-08 05:26:00,64.1,61.4,29.93,SSE,166,0.0,0.0,91,0.00,,SKC,0.00,VWS V14.01,2013-05-08 10:26:00,
2013-05-08 05:30:00,64.1,61.4,29.93,SSE,166,0.0,0.0,91,0.00,,SKC,0.00,VWS V14.01,2013-05-08 10:30:00,
2013-05-08 05:31:00,64.1,61.4,29.93,SSE,166,0.0,0.0,91,0.00,,SKC,0.00,VWS V14.01,2013-05-08 10:31:00,
2013-05-08 05:36:00,64.1,61.7,29.93,SSE,166,0.0,0.0,92,0.00,,SKC,0.00,VWS V14.01,2013-05-08 10:36:00,
2013-05-08 05:40:00,64.1,61.7,29.93,SSE,166,0.0,0.0,92,0.00,,SKC,0.00,VWS V14.01,2013-05-08 10:40:00,
2013-05-08 05:41:00,64.1,61.7,29.93,SSE,166,0.0,0.0,92,0.00,,SKC,0.00,VWS V14.01,2013-05-08 10:41:00,
2013-05-08 05:46:00,64.2,61.8,29.94,SSE,166,0.0,0.0,92,0.00,,SKC,0.00,VWS V14.01,2013-05-08 10:46:00,
2013-05-08 05:50:00,64.2,61.8,29.94,SSE,166,0.0,0.0,92,0.00,,SKC,0.00,VWS V14.01,2013-05-08 10:50:00,
2013-05-08 05:51:00,64.3,61.9,29.93,SSE,166,0.0,0.0,92,0.00,,SKC,0.00,VWS V14.01,2013-05-08 10:51:00,
2013-05-08 05:56:00,64.3,61.9,29.93,SSE,166,0.0,0.0,92,0.00,,SKC,0.00,VWS V14.01,2013-05-08 10:56:00,
2013-05-08 06:00:00,64.3,61.9,29.93,SSE,166,0.0,0.0,92,0.00,,SKC,0.00,VWS V14.01,2013-05-08 11:00:00,
2013-05-08 06:01:00,64.3,61.9,29.93,SSE,166,0.0,0.0,92,0.00,,SKC,0.00,VWS V14.01,2013-05-08 11:01:00,
2013-05-08 06:06:00,64.3,61.9,29.93,SSE,166,0.0,0.0,92,0.00,,SKC,0.00,VWS V14.01,2013-05-08 11:06:00,
2013-05-08 06:10:00,64.3,61.9,29.93,SSE,166,0.0,0.0,92,0.00,,SKC,0.00,VWS V14.01,2013-05-08 11:10:00,
2013-05-08 06:11:00,64.4,62.0,29.94,SSE,166,0.0,0.0,92,0.00,,SKC,0.00,VWS V14.01,2013-05-08 11:11:00,
2013-05-08 06:16:00,64.4,62.0,29.93,SSE,166,0.0,1.0,92,0.00,,SKC,0.00,VWS V14.01,2013-05-08 11:16:00,
2013-05-08 06:20:00,64.4,62.0,29.93,SSE,166,0.0,1.0,92,0.00,,SKC,0.00,VWS V14.01,2013-05-08 11:20:00,
2013-05-08 06:21:00,64.5,62.1,29.94,SSE,166,0.0,0.0,92,0.00,,SKC,0.00,VWS V14.01,2013-05-08 11:21:00,
2013-05-08 06:25:00,64.5,62.1,29.94,SSE,166,0.0,0.0,92,0.00,,SKC,0.00,VWS V14.01,2013-05-08 11:25:00,
2013-05-08 06:30:00,64.6,62.2,29.94,SSE,166,0.0,0.0,92,0.00,,SKC,0.00,VWS V14.01,2013-05-08 11:30:00,
2013-05-08 06:35:00,64.7,62.3,29.94,SSE,166,0.0,1.0,92,0.00,,SKC,0.00,VWS V14.01,2013-05-08 11:35:00,
2013-05-08 06:40:00,64.7,62.3,29.94,SSE,166,0.0,3.0,92,0.00,,SKC,0.00,VWS V14.01,2013-05-08 11:40:00,
2013-05-08 06:45:00,64.7,62.3,29.94,SSE,165,0.0,5.0,92,0.00,,SKC,0.00,VWS V14.01,2013-05-08 11:45:00,
2013-05-08 06:50:00,64.8,62.4,29.94,SSE,165,0.0,2.0,92,0.00,,SKC,0.00,VWS V14.01,2013-05-08 11:50:00,
2013-05-08 06:55:00,64.8,62.4,29.95,SSE,165,0.0,3.0,92,0.00,,SKC,0.00,VWS V14.01,2013-05-08 11:55:00,
2013-05-08 07:00:00,64.9,62.5,29.95,SSE,165,0.0,0.0,92,0.00,,SKC,0.00,VWS V14.01,2013-05-08 12:00:00,
2013-05-08 07:05:00,65.0,62.6,29.96,SSE,165,0.0,1.0,92,0.00,,SKC,0.00,VWS V14.01,2013-05-08 12:05:00,
2013-05-08 07:10:00,65.0,62.6,29.96,SSE,165,0.0,0.0,92,0.00,,SKC,0.00,VWS V14.01,2013-05-08 12:10:00,
2013-05-08 07:15:00,65.1,62.7,29.96,SSE,165,0.0,0.0,92,0.00,,SKC,0.00,VWS V14.01,2013-05-08 12:15:00,
2013-05-08 07:20:00,65.2,62.8,29.96,SSE,165,0.0,0.0,92,0.00,,SKC,0.00,VWS V14.01,2013-05-08 12:20:00,
2013-05-08 07:25:00,65.3,62.9,29.96,SSE,165,0.0,1.0,92,0.00,,SKC,0.00,VWS V14.01,2013-05-08 12:25:00,
2013-05-08 07:30:00,65.4,63.0,29.97,SSE,165,0.0,2.0,92,0.00,,SKC,0.00,VWS V14.01,2013-05-08 12:30:00,
2013-05-08 07:35:00,65.5,63.1,29.97,SSE,165,0.0,2.0,92,0.00,,SKC,0.00,VWS V14.01,2013-05-08 12:35:00,
2013-05-08 07:40:00,65.6,62.9,29.97,SSE,165,0.0,0.0,91,0.00,,SKC,0.00,VWS V14.01,2013-05-08 12:40:00,
2013-05-08 07:45:00,65.6,62.9,29.97,SSE,165,0.0,4.0,91,0.00,,SKC,0.00,VWS V14.01,2013-05-08 12:45:00,
2013-05-08 07:50:00,65.7,63.0,29.97,SSE,165,0.0,0.0,91,0.00,,SKC,0.00,VWS V14.01,2013-05-08 12:50:00,
2013-05-08 07:55:00,65.8,63.1,29.97,SSE,165,0.0,0.0,91,0.00,,SKC,0.00,VWS V14.01,2013-05-08 12:55:00,
2013-05-08 08:00:00,65.9,63.2,29.97,SSE,165,0.0,0.0,91,0.00,,SKC,0.00,VWS V14.01,2013-05-08 13:00:00,
2013-05-08 08:05:00,66.0,63.3,29.97,SSE,165,0.0,0.0,91,0.00,,SKC,0.00,VWS V14.01,2013-05-08 13:05:00,
2013-05-08 08:10:00,66.1,63.4,29.97,SSE,165,0.0,1.0,91,0.00,,SKC,0.00,VWS V14.01,2013-05-08 13:10:00,
2013-05-08 08:15:00,66.3,63.6,29.97,SSE,165,0.0,1.0,91,0.00,,SKC,0.00,VWS V14.01,2013-05-08 13:15:00,
2013-05-08 08:20:00,66.4,63.4,29.97,SSE,165,0.0,4.0,90,0.00,,SKC,0.00,VWS V14.01,2013-05-08 13:20:00,
2013-05-08 08:25:00,66.6,63.6,29.97,SSE,165,0.0,4.0,90,0.00,,SKC,0.00,VWS V14.01,2013-05-08 13:25:00,
2013-05-08 08:30:00,66.8,63.8,29.97,SSE,165,0.0,0.0,90,0.00,,SKC,0.00,VWS V14.01,2013-05-08 13:30:00,
2013-05-08 08:35:00,67.0,64.0,29.97,SSE,165,0.0,0.0,90,0.00,,SKC,0.00,VWS V14.01,2013-05-08 13:35:00,
2013-05-08 08:40:00,67.3,64.3,29.98,SSE,165,0.0,1.0,90,0.00,,SKC,0.00,VWS V14.01,2013-05-08 13:40:00,
2013-05-08 08:45:00,67.6,64.2,29.98,SSE,165,0.0,5.0,89,0.00,,SKC,0.00,VWS V14.01,2013-05-08 13:45:00,
2013-05-08 08:50:00,67.9,64.2,29.98,SSE,165,0.0,4.0,88,0.00,,SKC,0.00,VWS V14.01,2013-05-08 13:50:00,
2013-05-08 08:55:00,68.3,64.6,29.98,SSE,165,3.0,7.0,88,0.00,,SKC,0.00,VWS V14.01,2013-05-08 13:55:00,
2013-05-08 09:00:00,68.6,64.6,29.98,SSE,165,3.0,6.0,87,0.00,,SKC,0.00,VWS V14.01,2013-05-08 14:00:00,
2013-05-08 09:05:00,68.8,64.4,29.98,SSE,165,0.0,9.0,86,0.00,,SKC,0.00,VWS V14.01,2013-05-08 14:05:00,
2013-05-08 09:10:00,69.0,64.6,29.98,SSE,165,5.0,8.0,86,0.00,,SKC,0.00,VWS V14.01,2013-05-08 14:10:00,
2013-05-08 09:15:00,69.3,64.6,29.98,SSE,165,0.0,8.0,85,0.00,,SKC,0.00,VWS V14.01,2013-05-08 14:15:00,
2013-05-08 09:20:00,69.5,64.8,29.98,SSE,165,4.0,8.0,85,0.00,,SKC,0.00,VWS V14.01,2013-05-08 14:20:00,
2013-05-08 09:25:00,69.6,64.6,29.98,SSE,163,2.0,12.0,84,0.00,,SKC,0.00,VWS V14.01,2013-05-08 14:25:00,
2013-05-08 09:30:00,69.7,64.7,29.98,SSE,163,5.0,8.0,84,0.00,,SKC,0.00,VWS V14.01,2013-05-08 14:30:00,
2013-05-08 09:35:00,69.9,64.8,29.98,SSE,162,3.0,10.0,84,0.00,,SKC,0.00,VWS V14.01,2013-05-08 14:35:00,
2013-05-08 09:40:00,70.1,64.7,29.98,SSE,161,0.0,11.0,83,0.00,,SKC,0.00,VWS V14.01,2013-05-08 14:40:00,
2013-05-08 09:45:00,70.4,65.0,29.97,SSE,161,3.0,11.0,83,0.00,,SKC,0.00,VWS V14.01,2013-05-08 14:45:00,
2013-05-08 09:50:00,70.6,64.8,29.98,SSE,161,4.0,11.0,82,0.00,,SKC,0.00,VWS V14.01,2013-05-08 14:50:00,
2013-05-08 09:55:00,70.8,64.7,29.98,SSE,164,0.0,11.0,81,0.00,,SKC,0.00,VWS V14.01,2013-05-08 14:55:00,
2013-05-08 10:00:00,71.0,64.9,29.98,SSE,163,6.0,11.0,81,0.00,,SKC,0.00,VWS V14.01,2013-05-08 15:00:00,
2013-05-08 10:05:00,71.2,65.1,29.98,SSE,163,7.0,11.0,81,0.00,,SKC,0.00,VWS V14.01,2013-05-08 15:05:00,
2013-05-08 10:10:00,71.3,64.8,29.98,SSE,163,4.0,11.0,80,0.00,,SKC,0.00,VWS V14.01,2013-05-08 15:10:00,
2013-05-08 10:15:00,71.5,65.0,29.98,SSE,163,0.0,11.0,80,0.00,,SKC,0.00,VWS V14.01,2013-05-08 15:15:00,
2013-05-08 10:20:00,71.7,65.2,29.98,SSE,163,0.0,10.0,80,0.00,,SKC,0.00,VWS V14.01,2013-05-08 15:20:00,
2013-05-08 10:25:00,72.0,65.1,29.98,South,169,3.0,12.0,79,0.00,,SKC,0.00,VWS V14.01,2013-05-08 15:25:00,
2013-05-08 10:30:00,72.1,64.9,29.99,SSE,168,0.0,6.0,78,0.00,,SKC,0.00,VWS V14.01,2013-05-08 15:30:00,
2013-05-08 10:35:00,72.2,65.0,29.99,South,170,0.0,9.0,78,0.00,,SKC,0.00,VWS V14.01,2013-05-08 15:35:00,
2013-05-08 10:40:00,72.5,65.3,29.98,SSE,166,0.0,11.0,78,0.00,,SKC,0.00,VWS V14.01,2013-05-08 15:40:00,
2013-05-08 10:45:00,72.9,65.3,29.99,SSE,166,1.0,11.0,77,0.00,,SKC,0.00,VWS V14.01,2013-05-08 15:45:00,
2013-05-08 10:50:00,73.1,65.1,29.98,South,171,2.0,8.0,76,0.00,,SKC,0.00,VWS V14.01,2013-05-08 15:50:00,
2013-05-08 10:55:00,73.2,64.8,29.98,South,170,0.0,8.0,75,0.00,,SKC,0.00,VWS V14.01,2013-05-08 15:55:00,
2013-05-08 11:00:00,73.3,64.9,29.98,SSE,167,1.0,11.0,75,0.00,,SKC,0.00,VWS V14.01,2013-05-08 16:00:00,
2013-05-08 11:05:00,73.3,64.9,29.98,SSE,167,3.0,13.0,75,0.00,,SKC,0.00,VWS V14.01,2013-05-08 16:05:00,
2013-05-08 11:10:00,73.3,64.9,29.98,SSE,168,6.0,9.0,75,0.00,,SKC,0.00,VWS V14.01,2013-05-08 16:10:00,
2013-05-08 11:15:00,73.3,64.9,29.98,South,171,3.0,10.0,75,0.00,,SKC,0.00,VWS V14.01,2013-05-08 16:15:00,
2013-05-08 11:20:00,73.3,64.9,29.98,SSE,165,0.0,11.0,75,0.00,,SKC,0.00,VWS V14.01,2013-05-08 16:20:00,
2013-05-08 11:25:00,73.3,64.9,29.98,SSE,165,5.0,11.0,75,0.00,,SKC,0.00,VWS V14.01,2013-05-08 16:25:00,
2013-05-08 11:30:00,73.2,64.8,29.98,SSE,167,8.0,9.0,75,0.00,,SKC,0.00,VWS V14.01,2013-05-08 16:30:00,
2013-05-08 11:35:00,73.3,64.9,29.98,SSE,162,0.0,14.0,75,0.00,,SKC,0.00,VWS V14.01,2013-05-08 16:35:00,
2013-05-08 11:40:00,73.4,65.0,29.98,SSE,165,7.0,8.0,75,0.00,,SKC,0.00,VWS V14.01,2013-05-08 16:40:00,
2013-05-08 11:45:00,73.4,65.0,29.98,SSE,163,0.0,10.0,75,0.00,,SKC,0.00,VWS V14.01,2013-05-08 16:45:00,
2013-05-08 11:50:00,73.5,65.1,29.98,SSE,164,5.0,8.0,75,0.00,,SKC,0.00,VWS V14.01,2013-05-08 16:50:00,
2013-05-08 11:55:00,73.6,65.2,29.97,SSE,157,0.0,8.0,75,0.00,,SKC,0.00,VWS V14.01,2013-05-08 16:55:00,
2013-05-08 12:00:00,73.7,65.3,29.97,SSE,159,0.0,10.0,75,0.00,,SKC,0.00,VWS V14.01,2013-05-08 17:00:00,
2013-05-08 12:05:00,73.7,64.9,29.97,SSE,156,0.0,12.0,74,0.00,,SKC,0.00,VWS V14.01,2013-05-08 17:05:00,
2013-05-08 12:10:00,73.8,65.4,29.97,SSE,157,1.0,8.0,75,0.00,,SKC,0.00,VWS V14.01,2013-05-08 17:10:00,
2013-05-08 12:15:00,73.9,65.5,29.97,SSE,155,8.0,14.0,75,0.00,,SKC,0.00,VWS V14.01,2013-05-08 17:15:00,
2013-05-08 12:20:00,74.0,65.2,29.97,SSE,157,0.0,6.0,74,0.00,,SKC,0.00,VWS V14.01,2013-05-08 17:20:00,
2013-05-08 12:25:00,74.2,65.0,29.97,SSE,159,1.0,14.0,73,0.00,,SKC,0.00,VWS V14.01,2013-05-08 17:25:00,
2013-05-08 12:30:00,74.2,65.0,29.97,SSE,159,0.0,9.0,73,0.00,,SKC,0.00,VWS V14.01,2013-05-08 17:30:00,
2013-05-08 12:35:00,74.4,65.2,29.97,SSE,160,0.0,9.0,73,0.00,,SKC,0.00,VWS V14.01,2013-05-08 17:35:00,
2013-05-08 12:40:00,74.6,65.4,29.97,SSE,161,0.0,9.0,73,0.00,,SKC,0.00,VWS V14.01,2013-05-08 17:40:00,
2013-05-08 12:45:00,74.8,65.6,29.97,SSE,162,0.0,13.0,73,0.00,,SKC,0.00,VWS V14.01,2013-05-08 17:45:00,
2013-05-08 12:50:00,74.9,65.3,29.96,SSE,159,4.0,5.0,72,0.00,,SKC,0.00,VWS V14.01,2013-05-08 17:50:00,
2013-05-08 12:55:00,75.1,65.5,29.96,SSE,159,0.0,9.0,72,0.00,,SKC,0.00,VWS V14.01,2013-05-08 17:55:00,
2013-05-08 13:00:00,75.3,65.7,29.96,SSE,157,0.0,6.0,72,0.00,,SKC,0.00,VWS V14.01,2013-05-08 18:00:00,
2013-05-08 13:05:00,75.7,65.6,29.95,SSE,161,6.0,9.0,71,0.00,,SKC,0.00,VWS V14.01,2013-05-08 18:05:00,
2013-05-08 13:10:00,76.1,65.6,29.95,SSE,154,0.0,8.0,70,0.00,,SKC,0.00,VWS V14.01,2013-05-08 18:10:00,
2013-05-08 13:15:00,76.4,65.5,29.95,SSE,157,1.0,13.0,69,0.00,,SKC,0.00,VWS V14.01,2013-05-08 18:15:00,
2013-05-08 13:20:00,76.7,65.8,29.95,SSE,157,0.0,8.0,69,0.00,,SKC,0.00,VWS V14.01,2013-05-08 18:20:00,
2013-05-08 13:25:00,77.0,65.6,29.95,SSE,159,4.0,8.0,68,0.00,,SKC,0.00,VWS V14.01,2013-05-08 18:25:00,
2013-05-08 13:30:00,77.3,65.9,29.95,SSE,158,7.0,9.0,68,0.00,,SKC,0.00,VWS V14.01,2013-05-08 18:30:00,
2013-05-08 13:35:00,77.5,65.7,29.94,SSE,161,0.0,14.0,67,0.00,,SKC,0.00,VWS V14.01,2013-05-08 18:35:00,
2013-05-08 13:40:00,77.9,66.1,29.94,SSE,159,0.0,8.0,67,0.00,,SKC,0.00,VWS V14.01,2013-05-08 18:40:00,
2013-05-08 13:45:00,78.3,66.0,29.94,SSE,159,0.0,8.0,66,0.00,,SKC,0.00,VWS V14.01,2013-05-08 18:45:00,
2013-05-08 13:50:00,78.6,65.9,29.94,SSE,161,0.0,9.0,65,0.00,,SKC,0.00,VWS V14.01,2013-05-08 18:50:00,
2013-05-08 13:55:00,78.9,66.2,29.94,SSE,161,0.0,10.0,65,0.00,,SKC,0.00,VWS V14.01,2013-05-08 18:55:00,
2013-05-08 14:00:00,79.1,66.3,29.94,SSE,160,0.0,13.0,65,0.00,,SKC,0.00,VWS V14.01,2013-05-08 19:00:00,
2013-05-08 14:05:00,79.3,66.1,29.94,SSE,159,0.0,13.0,64,0.00,,SKC,0.00,VWS V14.01,2013-05-08 19:05:00,
2013-05-08 14:10:00,79.2,66.0,29.94,SSE,161,5.0,12.0,64,0.00,,SKC,0.00,VWS V14.01,2013-05-08 19:10:00,
2013-05-08 14:15:00,79.1,65.9,29.94,SSE,161,4.0,12.0,64,0.00,,SKC,0.00,VWS V14.01,2013-05-08 19:15:00,
2013-05-08 14:20:00,79.0,65.8,29.94,SSE,157,0.0,8.0,64,0.00,,SKC,0.00,VWS V14.01,2013-05-08 19:20:00,
2013-05-08 14:25:00,79.1,65.9,29.94,SSE,157,0.0,8.0,64,0.00,,SKC,0.00,VWS V14.01,2013-05-08 19:25:00,
2013-05-08 14:30:00,79.5,65.8,29.93,SSE,157,0.0,6.0,63,0.00,,SKC,0.00,VWS V14.01,2013-05-08 19:30:00,
2013-05-08 14:35:00,79.8,65.6,29.93,SSE,164,0.0,8.0,62,0.00,,SKC,0.00,VWS V14.01,2013-05-08 19:35:00,
2013-05-08 14:40:00,80.1,66.4,29.93,SSE,160,0.0,8.0,63,0.00,,SKC,0.00,VWS V14.01,2013-05-08 19:40:00,
2013-05-08 14:45:00,80.4,66.2,29.92,SSE,160,3.0,8.0,62,0.00,,SKC,0.00,VWS V14.01,2013-05-08 19:45:00,
2013-05-08 14:50:00,80.6,65.9,29.92,SSE,161,0.0,8.0,61,0.00,,SKC,0.00,VWS V14.01,2013-05-08 19:50:00,
2013-05-08 14:55:00,80.9,65.7,29.92,SSE,158,0.0,8.0,60,0.00,,SKC,0.00,VWS V14.01,2013-05-08 19:55:00,
2013-05-08 15:00:00,81.0,65.8,29.92,SSE,160,5.0,9.0,60,0.00,,SKC,0.00,VWS V14.01,2013-05-08 20:00:00,
2013-05-08 15:05:00,80.9,65.2,29.92,SSE,161,0.0,9.0,59,0.00,,SKC,0.00,VWS V14.01,2013-05-08 20:05:00,
2013-05-08 15:10:00,80.9,65.7,29.92,SSE,158,0.0,4.0,60,0.00,,SKC,0.00,VWS V14.01,2013-05-08 20:10:00,
2013-05-08 15:15:00,81.1,65.9,29.92,SSE,151,7.0,8.0,60,0.00,,SKC,0.00,VWS V14.01,2013-05-08 20:15:00,
2013-05-08 15:20:00,81.3,65.1,29.92,SSE,162,0.0,12.0,58,0.00,,SKC,0.00,VWS V14.01,2013-05-08 20:20:00,
2013-05-08 15:25:00,81.5,65.8,29.91,SSE,161,0.0,12.0,59,0.00,,SKC,0.00,VWS V14.01,2013-05-08 20:25:00,
2013-05-08 15:30:00,81.7,65.5,29.91,SSE,163,0.0,10.0,58,0.00,,SKC,0.00,VWS V14.01,2013-05-08 20:30:00,
2013-05-08 15:35:00,81.9,65.7,29.91,SSE,160,0.0,10.0,58,0.00,,SKC,0.00,VWS V14.01,2013-05-08 20:35:00,
2013-05-08 15:40:00,82.0,65.3,29.91,SSE,161,0.0,6.0,57,0.00,,SKC,0.00,VWS V14.01,2013-05-08 20:40:00,
2013-05-08 15:45:00,81.9,65.2,29.91,SSE,162,6.0,7.0,57,0.00,,SKC,0.00,VWS V14.01,2013-05-08 20:45:00,
2013-05-08 15:50:00,81.8,65.1,29.91,SSE,159,0.0,12.0,57,0.00,,SKC,0.00,VWS V14.01,2013-05-08 20:50:00,
2013-05-08 15:55:00,81.8,65.6,29.90,SSE,158,0.0,12.0,58,0.00,,SKC,0.00,VWS V14.01,2013-05-08 20:55:00,
2013-05-08 16:00:00,82.1,65.9,29.90,SSE,157,0.0,2.0,58,0.00,,SKC,0.00,VWS V14.01,2013-05-08 21:00:00,
2013-05-08 16:05:00,82.4,65.1,29.89,SSE,159,2.0,10.0,56,0.00,,SKC,0.00,VWS V14.01,2013-05-08 21:05:00,
2013-05-08 16:10:00,82.6,64.8,29.89,SSE,165,0.0,12.0,55,0.00,,SKC,0.00,VWS V14.01,2013-05-08 21:10:00,
2013-05-08 16:15:00,82.5,64.7,29.89,SSE,164,2.0,12.0,55,0.00,,SKC,0.00,VWS V14.01,2013-05-08 21:15:00,
2013-05-08 16:20:00,82.7,65.4,29.88,SSE,164,0.0,2.0,56,0.00,,SKC,0.00,VWS V14.01,2013-05-08 21:20:00,
2013-05-08 16:25:00,82.9,65.1,29.88,SSE,163,0.0,13.0,55,0.00,,SKC,0.00,VWS V14.01,2013-05-08 21:25:00,
2013-05-08 16:30:00,82.9,65.1,29.88,SSE,154,0.0,6.0,55,0.00,,SKC,0.00,VWS V14.01,2013-05-08 21:30:00,
2013-05-08 16:35:00,83.3,65.5,29.88,SSE,155,0.0,8.0,55,0.00,,SKC,0.00,VWS V14.01,2013-05-08 21:35:00,
2013-05-08 16:40:00,84.0,65.1,29.88,SSE,151,0.0,5.0,53,0.00,,SKC,0.00,VWS V14.01,2013-05-08 21:40:00,
2013-05-08 16:45:00,84.6,64.5,29.88,SSE,161,4.0,9.0,51,0.00,,SKC,0.00,VWS V14.01,2013-05-08 21:45:00,
2013-05-08 16:50:00,84.8,64.7,29.88,South,178,0.0,8.0,51,0.00,,SKC,0.00,VWS V14.01,2013-05-08 21:50:00,
2013-05-08 16:55:00,85.0,64.3,29.88,SSE,166,0.0,9.0,50,0.00,,SKC,0.00,VWS V14.01,2013-05-08 21:55:00,
2013-05-08 17:00:00,84.7,64.6,29.88,SSE,150,5.0,8.0,51,0.00,,SKC,0.00,VWS V14.01,2013-05-08 22:00:00,
2013-05-08 17:05:00,84.4,64.3,29.88,SSE,150,0.0,8.0,51,0.00,,SKC,0.00,VWS V14.01,2013-05-08 22:05:00,
2013-05-08 17:09:00,84.2,64.7,29.88,SSE,150,0.0,0.0,52,0.00,,SKC,0.00,VWS V14.01,2013-05-08 22:09:00,
2013-05-08 17:10:00,84.4,64.3,29.88,SSE,150,0.0,8.0,51,0.00,,SKC,0.00,VWS V14.01,2013-05-08 22:10:00,
2013-05-08 17:14:00,83.8,63.8,29.88,SSE,150,0.0,5.0,51,0.00,,SKC,0.00,VWS V14.01,2013-05-08 22:14:00,
2013-05-08 17:20:00,83.4,64.0,29.88,SSE,150,0.0,7.0,52,0.00,,SKC,0.00,VWS V14.01,2013-05-08 22:20:00,
2013-05-08 17:24:00,83.4,64.0,29.87,SSE,153,0.0,9.0,52,0.00,,SKC,0.00,VWS V14.01,2013-05-08 22:24:00,
2013-05-08 17:29:00,83.8,64.9,29.88,SSE,154,4.0,4.0,53,0.00,,SKC,0.00,VWS V14.01,2013-05-08 22:29:00,
2013-05-08 17:30:00,83.5,64.0,29.88,SSE,155,1.0,9.0,52,0.00,,SKC,0.00,VWS V14.01,2013-05-08 22:30:00,
2013-05-08 17:34:00,84.4,64.3,29.88,SSE,155,0.0,8.0,51,0.00,,SKC,0.00,VWS V14.01,2013-05-08 22:34:00,
2013-05-08 17:39:00,84.5,63.8,29.88,SSE,153,0.0,6.0,50,0.00,,SKC,0.00,VWS V14.01,2013-05-08 22:39:00,
2013-05-08 17:40:00,84.5,64.4,29.88,SSE,155,5.0,8.0,51,0.00,,SKC,0.00,VWS V14.01,2013-05-08 22:40:00,
2013-05-08 17:44:00,84.6,63.3,29.87,SE,146,0.0,8.0,49,0.00,,SKC,0.00,VWS V14.01,2013-05-08 22:44:00,
2013-05-08 17:49:00,84.4,63.8,29.87,SSE,147,0.0,4.0,50,0.00,,SKC,0.00,VWS V14.01,2013-05-08 22:49:00,
2013-05-08 17:50:00,84.5,63.3,29.87,SSE,147,0.0,8.0,49,0.00,,SKC,0.00,VWS V14.01,2013-05-08 22:50:00,
2013-05-08 17:54:00,84.1,63.5,29.87,SE,146,0.0,5.0,50,0.00,,SKC,0.00,VWS V14.01,2013-05-08 22:54:00,
2013-05-08 17:59:00,83.6,63.6,29.87,SSE,148,0.0,7.0,51,0.00,,SKC,0.00,VWS V14.01,2013-05-08 22:59:00,
2013-05-08 18:00:00,83.9,63.3,29.87,SE,146,0.0,5.0,50,0.00,,SKC,0.00,VWS V14.01,2013-05-08 23:00:00,
2013-05-08 18:04:00,83.3,63.3,29.86,SSE,148,0.0,7.0,51,0.00,,SKC,0.00,VWS V14.01,2013-05-08 23:04:00,
2013-05-08 18:09:00,83.5,63.5,29.86,SE,142,0.0,9.0,51,0.00,,SKC,0.00,VWS V14.01,2013-05-08 23:09:00,
2013-05-08 18:10:00,83.4,64.0,29.86,SSE,148,0.0,7.0,52,0.00,,SKC,0.00,VWS V14.01,2013-05-08 23:10:00,
2013-05-08 18:14:00,83.8,63.8,29.86,SE,142,0.0,9.0,51,0.00,,SKC,0.00,VWS V14.01,2013-05-08 23:14:00,
2013-05-08 18:19:00,83.9,63.8,29.86,SE,142,0.0,5.0,51,0.00,,SKC,0.00,VWS V14.01,2013-05-08 23:19:00,
2013-05-08 18:20:00,83.8,63.8,29.86,SE,142,0.0,9.0,51,0.00,,SKC,0.00,VWS V14.01,2013-05-08 23:20:00,
2013-05-08 18:24:00,83.6,63.6,29.86,SE,140,2.0,8.0,51,0.00,,SKC,0.00,VWS V14.01,2013-05-08 23:24:00,
2013-05-08 18:29:00,83.2,63.2,29.86,SE,135,0.0,10.0,51,0.00,,SKC,0.00,VWS V14.01,2013-05-08 23:29:00,
2013-05-08 18:30:00,83.4,63.4,29.86,SE,140,0.0,8.0,51,0.00,,SKC,0.00,VWS V14.01,2013-05-08 23:30:00,
2013-05-08 18:34:00,82.9,62.9,29.86,SE,134,0.0,10.0,51,0.00,,SKC,0.00,VWS V14.01,2013-05-08 23:34:00,
2013-05-08 18:39:00,82.6,63.2,29.85,SE,134,0.0,7.0,52,0.00,,SKC,0.00,VWS V14.01,2013-05-08 23:39:00,
2013-05-08 18:40:00,82.8,62.8,29.85,SE,134,0.0,10.0,51,0.00,,SKC,0.00,VWS V14.01,2013-05-08 23:40:00,
2013-05-08 18:44:00,82.5,63.1,29.85,SE,134,0.0,7.0,52,0.00,,SKC,0.00,VWS V14.01,2013-05-08 23:44:00,
2013-05-08 18:49:00,82.5,63.1,29.85,SE,134,1.0,4.0,52,0.00,,SKC,0.00,VWS V14.01,2013-05-08 23:49:00,
2013-05-08 18:50:00,82.5,63.1,29.85,SE,134,0.0,7.0,52,0.00,,SKC,0.00,VWS V14.01,2013-05-08 23:50:00,
2013-05-08 18:54:00,82.4,62.5,29.85,SE,132,0.0,7.0,51,0.00,,SKC,0.00,VWS V14.01,2013-05-08 23:54:00,
2013-05-08 18:59:00,82.3,62.9,29.85,SE,132,0.0,4.0,52,0.00,,SKC,0.00,VWS V14.01,2013-05-08 23:59:00,
2013-05-08 19:00:00,82.4,63.0,29.85,SE,132,2.0,7.0,52,0.00,,SKC,0.00,VWS V14.01,2013-05-09 00:00:00,
2013-05-08 19:04:00,82.1,62.8,29.85,SE,132,1.0,4.0,52,0.00,,SKC,0.00,VWS V14.01,2013-05-09 00:04:00,
2013-05-08 19:09:00,81.9,62.6,29.85,SE,132,2.0,5.0,52,0.00,,SKC,0.00,VWS V14.01,2013-05-09 00:09:00,
2013-05-08 19:10:00,82.1,62.8,29.85,SE,132,0.0,7.0,52,0.00,,SKC,0.00,VWS V14.01,2013-05-09 00:10:00,
2013-05-08 19:14:00,81.7,62.9,29.85,SE,132,0.0,5.0,53,0.00,,SKC,0.00,VWS V14.01,2013-05-09 00:14:00,
2013-05-08 19:19:00,81.5,62.7,29.85,SE,132,0.0,4.0,53,0.00,,SKC,0.00,VWS V14.01,2013-05-09 00:19:00,
2013-05-08 19:20:00,81.6,62.8,29.85,SE,132,0.0,5.0,53,0.00,,SKC,0.00,VWS V14.01,2013-05-09 00:20:00,
2013-05-08 19:24:00,81.4,63.2,29.85,SE,132,1.0,4.0,54,0.00,,SKC,0.00,VWS V14.01,2013-05-09 00:24:00,
2013-05-08 19:29:00,81.3,62.5,29.85,SE,131,0.0,7.0,53,0.00,,SKC,0.00,VWS V14.01,2013-05-09 00:29:00,
2013-05-08 19:30:00,81.4,63.2,29.85,SE,130,2.0,10.0,54,0.00,,SKC,0.00,VWS V14.01,2013-05-09 00:30:00,
2013-05-08 19:34:00,81.2,62.5,29.85,SE,130,1.0,7.0,53,0.00,,SKC,0.00,VWS V14.01,2013-05-09 00:34:00,
2013-05-08 19:39:00,81.0,62.8,29.85,SE,137,4.0,10.0,54,0.00,,SKC,0.00,VWS V14.01,2013-05-09 00:39:00,
2013-05-08 19:40:00,81.2,63.0,29.85,SE,130,0.0,7.0,54,0.00,,SKC,0.00,VWS V14.01,2013-05-09 00:40:00,
2013-05-08 19:44:00,80.7,63.0,29.85,SE,134,0.0,10.0,55,0.00,,SKC,0.00,VWS V14.01,2013-05-09 00:44:00,
2013-05-08 19:49:00,80.4,62.8,29.85,SE,130,4.0,9.0,55,0.00,,SKC,0.00,VWS V14.01,2013-05-09 00:49:00,
2013-05-08 19:50:00,80.6,63.0,29.85,SE,134,0.0,10.0,55,0.00,,SKC,0.00,VWS V14.01,2013-05-09 00:50:00,
2013-05-08 19:54:00,80.1,63.0,29.85,SE,130,0.0,9.0,56,0.00,,SKC,0.00,VWS V14.01,2013-05-09 00:54:00,
2013-05-08 19:59:00,79.6,63.0,29.85,ESE,123,11.0,11.0,57,0.00,,SKC,0.00,VWS V14.01,2013-05-09 00:59:00,
2013-05-08 20:00:00,79.9,63.3,29.85,SE,130,2.0,9.0,57,0.00,,SKC,0.00,VWS V14.01,2013-05-09 01:00:00,
2013-05-08 20:04:00,79.1,63.6,29.85,SE,127,9.0,11.0,59,0.00,,SKC,0.00,VWS V14.01,2013-05-09 01:04:00,
2013-05-08 20:09:00,78.6,63.6,29.85,ESE,122,0.0,12.0,60,0.00,,SKC,0.00,VWS V14.01,2013-05-09 01:09:00,
2013-05-08 20:10:00,78.9,63.4,29.85,SE,126,4.0,11.0,59,0.00,,SKC,0.00,VWS V14.01,2013-05-09 01:10:00,
2013-05-08 20:14:00,78.1,63.6,29.85,ESE,121,0.0,12.0,61,0.00,,SKC,0.00,VWS V14.01,2013-05-09 01:14:00,
2013-05-08 20:19:00,77.7,63.7,29.85,ESE,122,2.0,9.0,62,0.00,,SKC,0.00,VWS V14.01,2013-05-09 01:19:00,
2013-05-08 20:20:00,78.0,63.5,29.85,ESE,122,0.0,12.0,61,0.00,,SKC,0.00,VWS V14.01,2013-05-09 01:20:00,
2013-05-08 20:24:00,77.4,63.4,29.85,SE,125,0.0,9.0,62,0.00,,SKC,0.00,VWS V14.01,2013-05-09 01:24:00,
2013-05-08 20:29:00,77.1,63.5,29.85,SE,125,0.0,5.0,63,0.00,,SKC,0.00,VWS V14.01,2013-05-09 01:29:00,
2013-05-08 20:30:00,77.3,63.7,29.85,SE,125,0.0,9.0,63,0.00,,SKC,0.00,VWS V14.01,2013-05-09 01:30:00,
2013-05-08 20:34:00,76.8,63.7,29.85,SE,125,0.0,5.0,64,0.00,,SKC,0.00,VWS V14.01,2013-05-09 01:34:00,
2013-05-08 20:39:00,76.5,63.4,29.86,SE,125,0.0,4.0,64,0.00,,SKC,0.00,VWS V14.01,2013-05-09 01:39:00,
2013-05-08 20:40:00,76.7,63.6,29.85,SE,125,0.0,5.0,64,0.00,,SKC,0.00,VWS V14.01,2013-05-09 01:40:00,
2013-05-08 20:44:00,76.2,63.6,29.86,SE,125,0.0,4.0,65,0.00,,SKC,0.00,VWS V14.01,2013-05-09 01:44:00,
2013-05-08 20:49:00,75.9,63.7,29.86,SE,125,0.0,0.0,66,0.00,,SKC,0.00,VWS V14.01,2013-05-09 01:49:00,
2013-05-08 20:50:00,76.1,63.5,29.86,SE,125,0.0,4.0,65,0.00,,SKC,0.00,VWS V14.01,2013-05-09 01:50:00,
2013-05-08 20:54:00,75.6,63.9,29.87,SE,126,0.0,2.0,67,0.00,,SKC,0.00,VWS V14.01,2013-05-09 01:54:00,
2013-05-08 20:59:00,75.3,64.0,29.88,SE,124,0.0,8.0,68,0.00,,SKC,0.00,VWS V14.01,2013-05-09 01:59:00,
2013-05-08 21:00:00,75.5,63.8,29.87,SE,126,0.0,2.0,67,0.00,,SKC,0.00,VWS V14.01,2013-05-09 02:00:00,
2013-05-08 21:04:00,75.1,63.8,29.88,ESE,123,1.0,8.0,68,0.00,,SKC,0.00,VWS V14.01,2013-05-09 02:04:00,
2013-05-08 21:09:00,74.8,64.0,29.88,SE,124,0.0,3.0,69,0.00,,SKC,0.00,VWS V14.01,2013-05-09 02:09:00,
2013-05-08 21:10:00,74.9,63.6,29.88,SE,124,0.0,8.0,68,0.00,,SKC,0.00,VWS V14.01,2013-05-09 02:10:00,
2013-05-08 21:14:00,74.5,64.1,29.88,SE,124,1.0,6.0,70,0.00,,SKC,0.00,VWS V14.01,2013-05-09 02:14:00,
2013-05-08 21:19:00,74.3,63.9,29.88,SE,124,0.0,5.0,70,0.00,,SKC,0.00,VWS V14.01,2013-05-09 02:19:00,
2013-05-08 21:20:00,74.4,64.0,29.88,SE,124,0.0,6.0,70,0.00,,SKC,0.00,VWS V14.01,2013-05-09 02:20:00,
2013-05-08 21:24:00,74.0,64.0,29.89,SE,127,0.0,8.0,71,0.00,,SKC,0.00,VWS V14.01,2013-05-09 02:24:00,
2013-05-08 21:29:00,73.8,63.8,29.88,SE,128,0.0,10.0,71,0.00,,SKC,0.00,VWS V14.01,2013-05-09 02:29:00,
2013-05-08 21:30:00,73.9,63.9,29.89,SE,127,0.0,8.0,71,0.00,,SKC,0.00,VWS V14.01,2013-05-09 02:30:00,
2013-05-08 21:34:00,73.6,63.6,29.89,SSE,151,0.0,14.0,71,0.00,,SKC,0.00,VWS V14.01,2013-05-09 02:34:00,
2013-05-08 21:39:00,73.4,63.8,29.89,SSE,152,0.0,9.0,72,0.00,,SKC,0.00,VWS V14.01,2013-05-09 02:39:00,
2013-05-08 21:40:00,73.5,63.5,29.89,SSE,152,3.0,14.0,71,0.00,,SKC,0.00,VWS V14.01,2013-05-09 02:40:00,
2013-05-08 21:44:00,73.2,63.6,29.89,SSE,150,0.0,9.0,72,0.00,,SKC,0.00,VWS V14.01,2013-05-09 02:44:00,
2013-05-08 21:49:00,73.0,63.5,29.90,SSE,150,0.0,3.0,72,0.00,,SKC,0.00,VWS V14.01,2013-05-09 02:49:00,
2013-05-08 21:50:00,73.1,63.5,29.89,SSE,150,0.0,9.0,72,0.00,,SKC,0.00,VWS V14.01,2013-05-09 02:50:00,
2013-05-08 21:54:00,72.7,63.5,29.91,SSE,150,0.0,8.0,73,0.00,,SKC,0.00,VWS V14.01,2013-05-09 02:54:00,
2013-05-08 21:59:00,72.5,63.8,29.90,SSE,152,0.0,4.0,74,0.00,,SKC,0.00,VWS V14.01,2013-05-09 02:59:00,
2013-05-08 22:00:00,72.6,63.5,29.90,SSE,152,0.0,8.0,73,0.00,,SKC,0.00,VWS V14.01,2013-05-09 03:00:00,
2013-05-08 22:04:00,72.3,63.6,29.91,SSE,153,0.0,7.0,74,0.00,,SKC,0.00,VWS V14.01,2013-05-09 03:04:00,
2013-05-08 22:09:00,72.1,63.8,29.91,SSE,153,0.0,7.0,75,0.00,,SKC,0.00,VWS V14.01,2013-05-09 03:09:00,
2013-05-08 22:10:00,72.2,63.5,29.90,SSE,153,0.0,7.0,74,0.00,,SKC,0.00,VWS V14.01,2013-05-09 03:10:00,
2013-05-08 22:14:00,72.0,64.0,29.91,SSE,153,0.0,8.0,76,0.00,,SKC,0.00,VWS V14.01,2013-05-09 03:14:00,
2013-05-08 22:19:00,71.9,63.9,29.91,SSE,153,0.0,7.0,76,0.00,,SKC,0.00,VWS V14.01,2013-05-09 03:19:00,
2013-05-08 22:20:00,71.9,63.9,29.91,SSE,153,0.0,9.0,76,0.00,,SKC,0.00,VWS V14.01,2013-05-09 03:20:00,
2013-05-08 22:24:00,71.8,64.2,29.91,SSE,153,0.0,8.0,77,0.00,,SKC,0.00,VWS V14.01,2013-05-09 03:24:00,
2013-05-08 22:29:00,71.7,64.1,29.92,SSE,152,0.0,6.0,77,0.00,,SKC,0.00,VWS V14.01,2013-05-09 03:29:00,
2013-05-08 22:30:00,71.8,64.2,29.92,SSE,155,0.0,9.0,77,0.00,,SKC,0.00,VWS V14.01,2013-05-09 03:30:00,
2013-05-08 22:34:00,71.7,64.1,29.92,SE,146,0.0,8.0,77,0.00,,SKC,0.00,VWS V14.01,2013-05-09 03:34:00,
2013-05-08 22:39:00,71.7,64.1,29.92,SE,146,2.0,11.0,77,0.00,,SKC,0.00,VWS V14.01,2013-05-09 03:39:00,
2013-05-08 22:40:00,71.7,64.1,29.92,SSE,148,5.0,9.0,77,0.00,,SKC,0.00,VWS V14.01,2013-05-09 03:40:00,
2013-05-08 22:44:00,71.7,64.5,29.93,SSE,148,0.0,11.0,78,0.00,,SKC,0.00,VWS V14.01,2013-05-09 03:44:00,
2013-05-08 22:49:00,71.7,64.5,29.93,SE,146,0.0,4.0,78,0.00,,SKC,0.00,VWS V14.01,2013-05-09 03:49:00,
2013-05-08 22:50:00,71.7,64.5,29.93,SE,146,0.0,11.0,78,0.00,,SKC,0.00,VWS V14.01,2013-05-09 03:50:00,
2013-05-08 22:54:00,71.7,64.5,29.93,SSE,148,0.0,9.0,78,0.00,,SKC,0.00,VWS V14.01,2013-05-09 03:54:00,
2013-05-08 22:59:00,71.6,64.4,29.93,SSE,156,12.0,12.0,78,0.00,,SKC,0.00,VWS V14.01,2013-05-09 03:59:00,
2013-05-08 23:00:00,71.6,64.4,29.93,SSE,150,0.0,9.0,78,0.00,,SKC,0.00,VWS V14.01,2013-05-09 04:00:00,
2013-05-08 23:01:00,71.6,64.4,29.93,SSE,157,0.0,12.0,78,0.00,,SKC,0.00,VWS V14.01,2013-05-09 04:01:00,
2013-05-08 23:06:00,71.6,64.4,29.93,SSE,157,0.0,12.0,78,0.00,,SKC,0.00,VWS V14.01,2013-05-09 04:06:00,
2013-05-08 23:10:00,71.6,64.4,29.93,SSE,157,0.0,12.0,78,0.00,,SKC,0.00,VWS V14.01,2013-05-09 04:10:00,
2013-05-08 23:11:00,71.5,64.3,29.93,SSE,159,0.0,12.0,78,0.00,,SKC,0.00,VWS V14.01,2013-05-09 04:11:00,
2013-05-08 23:16:00,71.5,64.7,29.93,SSE,159,0.0,12.0,79,0.00,,SKC,0.00,VWS V14.01,2013-05-09 04:16:00,
2013-05-08 23:20:00,71.5,64.7,29.93,SSE,159,0.0,12.0,79,0.00,,SKC,0.00,VWS V14.01,2013-05-09 04:20:00,
2013-05-08 23:21:00,71.4,64.6,29.93,SSE,159,0.0,1.0,79,0.00,,SKC,0.00,VWS V14.01,2013-05-09 04:21:00,
2013-05-08 23:26:00,71.4,64.6,29.93,SSE,159,0.0,6.0,79,0.00,,SKC,0.00,VWS V14.01,2013-05-09 04:26:00,
2013-05-08 23:30:00,71.4,64.6,29.93,SSE,159,0.0,6.0,79,0.00,,SKC,0.00,VWS V14.01,2013-05-09 04:30:00,
2013-05-08 23:31:00,71.3,64.5,29.93,SSE,159,0.0,8.0,79,0.00,,SKC,0.00,VWS V14.01,2013-05-09 04:31:00,
2013-05-08 23:36:00,71.3,64.8,29.93,SSE,161,2.0,9.0,80,0.00,,SKC,0.00,VWS V14.01,2013-05-09 04:36:00,
2013-05-08 23:40:00,71.3,64.8,29.93,SSE,161,0.0,9.0,80,0.00,,SKC,0.00,VWS V14.01,2013-05-09 04:40:00,
2013-05-08 23:41:00,71.3,64.8,29.93,SSE,162,0.0,12.0,80,0.00,,SKC,0.00,VWS V14.01,2013-05-09 04:41:00,
2013-05-08 23:46:00,71.3,64.8,29.93,SSE,162,6.0,12.0,80,0.00,,SKC,0.00,VWS V14.01,2013-05-09 04:46:00,
2013-05-08 23:50:00,71.3,64.8,29.93,SSE,163,5.0,12.0,80,0.00,,SKC,0.00,VWS V14.01,2013-05-09 04:50:00,
2013-05-08 23:51:00,71.3,64.8,29.93,SSE,161,0.0,9.0,80,0.00,,SKC,0.00,VWS V14.01,2013-05-09 04:51:00,
2013-05-08 23:56:00,71.3,64.8,29.92,SSE,161,0.0,9.0,80,0.00,,SKC,0.00,VWS V14.01,2013-05-09 04:56:00,